Total_Precipitation_Accumulation
0.09 0.17 0.20 0.21 0.20 0.18 0.13 0.12 0.17 0.22 0.35 0.51 0.61 0.74 0.68 0.68 0.74 0.75 0.62 0.54 0.45 0.45 0.54 0.63 0.70 0.71 0.77 0.84 0.91 1.04 1.06 1.04 1.08 1.14 1.13 1.16 1.19 1.20 1.22 1.30 1.31 1.46 1.48 1.57
0.11 0.14 0.14 0.16 0.18 0.15 0.11 0.09 0.10 0.18 0.36 0.53 0.66 0.69 0.65 0.56 0.56 0.70 0.63 0.54 0.52 0.52 0.59 0.63 0.64 0.66 0.68 0.68 0.78 0.96 1.04 1.15 1.23 1.22 1.12 1.15 1.16 1.14 1.18 1.30 1.38 1.46 1.49 1.60
0.21 0.17 0.18 0.25 0.21 0.18 0.15 0.12 0.13 0.24 0.37 0.54 0.67 0.60 0.64 0.60 0.53 0.52 0.52 0.50 0.57 0.63 0.65 0.64 0.63 0.60 0.59 0.59 0.72 1.01 1.11 1.13 1.25 1.32 1.23 1.28 1.31 1.29 1.29 1.34 1.43 1.48 1.58 1.62
0.28 0.31 0.38 0.29 0.24 0.23 0.25 0.26 0.24 0.28 0.39 0.61 0.78 0.68 0.63 0.63 0.62 0.56 0.46 0.49 0.58 0.59 0.60 0.61 0.61 0.62 0.62 0.64 0.70 0.94 1.12 1.17 1.38 1.53 1.43 1.44 1.45 1.45 1.48 1.52 1.54 1.63 1.67 1.59
0.42 0.44 0.47 0.39 0.35 0.36 0.45 0.56 0.47 0.48 0.61 0.66 0.65 0.66 0.72 0.67 0.61 0.56 0.55 0.58 0.59 0.63 0.65 0.70 0.76 0.78 0.78 0.86 0.95 1.09 1.21 1.32 1.54 1.74 1.78 1.73 1.68 1.74 1.77 1.77 1.79 1.85 1.90 1.87
0.57 0.64 0.73 0.66 0.53 0.49 0.62 0.99 0.81 0.66 0.69 0.71 0.70 0.86 0.88 0.63 0.55 0.53 0.57 0.65 0.75 0.84 0.83 0.84 0.92 0.91 0.94 1.03 1.21 1.34 1.38 1.39 1.50 1.70 1.78 1.75 1.74 1.87 2.01 2.03 2.02 2.05 1.95 1.82
0.64 0.74 0.74 0.67 0.59 0.63 1.09 1.44 1.03 0.89 0.90 0.94 0.94 0.89 0.77 0.68 0.70 0.63 0.59 0.66 0.72 0.73 0.83 0.93 1.03 1.09 1.18 1.22 1.29 1.34 1.35 1.38 1.47 1.69 1.97 1.91 1.93 1.99 2.09 2.15 2.19 2.20 2.10 2.00
0.75 0.98 1.09 0.72 0.64 0.99 1.33 1.23 1.25 1.22 1.19 1.14 0.99 0.81 0.70 0.68 0.74 0.65 0.62 0.70 0.70 0.69 0.79 0.94 1.12 1.29 1.33 1.29 1.32 1.41 1.42 1.44 1.54 1.76 1.86 1.91 2.02 2.07 2.19 2.30 2.30 2.26 2.26 2.13
1.00 1.21 1.11 0.87 0.94 0.99 1.06 1.19 1.24 1.17 1.18 1.15 1.10 0.96 0.85 0.81 0.77 0.71 0.71 0.73 0.80 0.80 0.84 0.94 1.08 1.29 1.41 1.40 1.40 1.40 1.37 1.37 1.45 1.59 1.66 1.79 1.87 1.83 1.88 1.99 2.00 2.04 2.08 2.04
1.39 1.40 1.22 1.04 0.96 0.96 0.94 1.01 1.02 0.98 0.94 0.93 0.93 0.90 0.86 0.85 0.86 0.88 0.90 0.86 0.88 0.88 0.91 0.96 1.03 1.21 1.34 1.32 1.34 1.38 1.31 1.26 1.35 1.52 1.63 1.73 1.80 1.77 1.83 1.88 1.92 1.99 2.01 1.97
1.72 1.70 1.49 1.38 1.21 1.17 1.04 1.00 0.98 0.94 0.91 0.85 0.76 0.75 0.74 0.71 0.72 0.78 0.86 0.90 0.86 0.85 0.89 0.90 0.94 1.13 1.28 1.30 1.33 1.41 1.37 1.30 1.36 1.46 1.56 1.67 1.73 1.78 1.79 1.80 1.77 1.78 1.81 1.77
1.84 1.69 1.58 1.58 1.29 1.23 1.29 1.17 1.04 1.04 1.00 0.90 0.76 0.69 0.67 0.66 0.65 0.67 0.76 0.88 0.90 0.92 0.91 0.88 0.93 1.06 1.18 1.35 1.50 1.54 1.45 1.38 1.32 1.27 1.35 1.42 1.48 1.47 1.40 1.36 1.34 1.31 1.34 1.27
1.26 1.34 1.42 1.55 1.39 1.21 1.22 1.16 1.09 1.07 1.03 0.93 0.82 0.70 0.59 0.56 0.57 0.63 0.74 0.87 0.97 1.04 0.98 0.93 0.94 1.01 1.12 1.26 1.46 1.59 1.54 1.38 1.26 1.18 1.18 1.21 1.32 1.39 1.42 1.30 1.21 1.13 1.09 0.98
1.25 1.36 1.45 1.41 1.41 1.36 1.21 1.13 1.05 1.02 0.98 0.90 0.84 0.76 0.66 0.63 0.61 0.68 0.83 0.92 0.93 0.96 0.98 0.95 0.94 0.98 1.06 1.20 1.37 1.46 1.44 1.34 1.19 1.13 1.11 1.07 1.12 1.22 1.28 1.34 1.30 1.13 0.97 0.87
1.40 1.35 1.35 1.30 1.29 1.35 1.30 1.22 1.11 1.04 0.96 0.94 0.90 0.87 0.78 0.71 0.70 0.74 0.82 0.99 1.11 1.11 1.02 0.99 1.01 1.02 1.05 1.17 1.28 1.33 1.32 1.23 1.11 1.08 1.09 1.02 0.96 1.01 1.07 1.13 1.22 1.17 0.99 0.90
1.27 1.22 1.22 1.28 1.32 1.26 1.19 1.19 1.13 1.04 0.87 0.84 0.88 0.87 0.80 0.76 0.76 0.78 0.87 1.04 1.30 1.42 1.30 1.15 1.08 1.05 1.06 1.15 1.23 1.18 1.11 1.04 1.00 1.02 1.01 0.97 0.94 0.96 1.03 1.11 1.18 1.16 1.03 0.91
1.11 1.06 1.05 1.10 1.15 1.18 1.13 1.06 1.00 0.90 0.81 0.79 0.80 0.80 0.79 0.81 0.89 1.01 1.07 1.16 1.25 1.28 1.28 1.26 1.15 1.07 1.12 1.20 1.25 1.14 0.99 0.88 0.79 0.81 0.88 0.90 0.93 1.00 1.10 1.15 1.16 1.07 0.91 0.77
0.84 0.85 0.89 0.91 0.91 0.99 1.00 0.90 0.82 0.76 0.72 0.74 0.76 0.79 0.82 0.89 1.07 1.28 1.31 1.25 1.24 1.15 1.06 1.07 1.06 1.04 1.12 1.18 1.22 1.18 1.01 0.86 0.73 0.70 0.73 0.76 0.86 0.98 1.06 1.05 0.98 0.91 0.82 0.72
0.66 0.70 0.73 0.76 0.78 0.79 0.80 0.78 0.79 0.74 0.65 0.65 0.72 0.80 0.87 0.95 1.13 1.34 1.37 1.42 1.41 1.25 1.01 0.89 0.92 0.93 1.00 1.06 1.14 1.13 0.92 0.73 0.58 0.54 0.56 0.60 0.72 0.88 0.93 0.87 0.78 0.75 0.74 0.71
0.62 0.60 0.61 0.61 0.63 0.65 0.66 0.63 0.63 0.66 0.63 0.64 0.71 0.78 0.88 1.00 1.19 1.38 1.43 1.45 1.36 1.18 0.95 0.79 0.75 0.74 0.79 0.92 1.00 0.94 0.80 0.65 0.51 0.44 0.46 0.53 0.67 0.83 0.83 0.74 0.69 0.70 0.70 0.71
0.59 0.57 0.55 0.56 0.60 0.58 0.55 0.53 0.52 0.59 0.66 0.69 0.74 0.84 0.91 0.95 1.09 1.34 1.55 1.57 1.27 0.98 0.83 0.79 0.71 0.65 0.69 0.84 0.87 0.78 0.68 0.57 0.46 0.40 0.43 0.56 0.73 0.83 0.75 0.67 0.65 0.66 0.63 0.67
0.61 0.59 0.56 0.54 0.58 0.60 0.59 0.59 0.58 0.62 0.71 0.72 0.72 0.79 0.90 1.01 1.03 1.09 1.20 1.38 1.27 1.05 0.80 0.68 0.65 0.67 0.74 0.83 0.79 0.69 0.64 0.60 0.53 0.47 0.51 0.63 0.75 0.78 0.71 0.67 0.69 0.66 0.64 0.66
0.65 0.61 0.58 0.54 0.57 0.61 0.60 0.62 0.62 0.72 0.85 0.85 0.81 0.79 0.85 0.96 1.06 1.19 1.15 1.05 1.05 1.01 0.81 0.67 0.63 0.68 0.75 0.78 0.75 0.67 0.67 0.64 0.58 0.55 0.57 0.63 0.69 0.71 0.72 0.72 0.73 0.68 0.66 0.65
0.64 0.61 0.60 0.56 0.56 0.62 0.65 0.64 0.64 0.70 0.81 0.77 0.71 0.66 0.76 0.89 0.90 0.89 0.98 1.05 1.01 0.97 0.81 0.73 0.66 0.63 0.67 0.66 0.68 0.70 0.75 0.69 0.61 0.55 0.55 0.60 0.65 0.70 0.75 0.77 0.75 0.71 0.68 0.64
0.60 0.59 0.59 0.61 0.66 0.72 0.71 0.71 0.76 0.79 0.86 0.79 0.67 0.60 0.61 0.76 0.89 0.79 0.79 0.86 0.91 0.86 0.76 0.71 0.66 0.69 0.68 0.71 0.73 0.74 0.69 0.60 0.54 0.52 0.55 0.62 0.66 0.70 0.75 0.74 0.70 0.71 0.71 0.70
0.68 0.63 0.62 0.65 0.69 0.72 0.75 0.88 1.00 1.02 1.06 0.99 0.78 0.59 0.54 0.61 0.68 0.73 0.77 0.81 0.85 0.85 0.72 0.64 0.62 0.66 0.70 0.76 0.75 0.69 0.60 0.56 0.56 0.57 0.60 0.65 0.66 0.69 0.73 0.74 0.70 0.71 0.71 0.71
0.64 0.61 0.62 0.65 0.68 0.67 0.68 0.79 0.92 1.04 1.16 1.15 0.90 0.60 0.54 0.59 0.66 0.73 0.76 0.80 0.85 0.85 0.77 0.66 0.61 0.63 0.67 0.70 0.70 0.64 0.55 0.51 0.53 0.56 0.57 0.58 0.60 0.68 0.74 0.76 0.71 0.70 0.71 0.68